Date String (YYYY-MM-DD hh:mm:ss) UTC,Instrument flags,Ambient pressure (hPa),Sample flow (lpm),Bypass flow (lpm),Sample temperature (°C),Ambient temperature (°C),ASC tube jacket temperature (°C),LED temperature (°C),Box temperature (°C),Sample RH (%),Span deviation,Mass concentration (μg/m³),Mass concentration (μg/m³),Mass concentration (μg/m³)
DateTimeUTC,F1_M11,P_M11,Q1_M11,Q2_M11,T1_M11,T2_M11,T3_M11,T4_M11,T5_M11,U1_M11,ZSPAN_M11,X0_M11,X2_M11,X1_M11
2022-09-13 09:00:00,,0826.7,5.00,0.00,30.0,28.4,00.0,38.9,31.7,09.6,0000.7,0014.24,0008.79,0008.26
2022-09-13 09:01:00,,0826.7,5.00,0.00,30.0,28.4,00.0,38.8,31.7,09.6,0000.5,0014.26,0008.79,0008.27
2022-09-13 09:02:00,,0826.7,4.99,0.00,30.0,28.4,00.0,38.8,31.7,09.5,-000.1,0014.47,0008.78,0008.27
2022-09-13 09:03:00,,0826.7,5.00,0.00,30.0,28.4,00.0,38.8,31.7,09.6,-000.3,0014.02,0008.77,0008.26
2022-09-13 09:04:00,,0826.7,5.00,0.00,30.0,28.4,00.0,38.8,31.7,09.5,-000.4,0013.63,0008.79,0008.27
2022-09-13 09:05:00,,0826.7,4.99,0.00,30.0,28.4,00.0,38.8,31.7,09.6,0000.3,0012.75,0008.80,0008.28
2022-09-13 09:06:00,,0826.7,5.00,0.00,30.0,28.4,00.0,38.8,31.7,09.6,-000.0,0012.64,0008.80,0008.29
2022-09-13 09:07:00,,0826.7,5.00,0.00,30.0,28.4,00.0,38.8,31.7,09.5,-000.3,0012.61,0008.81,0008.30
2022-09-13 09:08:00,,0826.7,5.01,0.00,30.0,28.4,00.0,38.8,31.7,09.5,0000.1,0012.65,0008.78,0008.28
2022-09-13 09:09:00,,0826.7,4.99,0.00,30.0,28.4,00.0,38.8,31.7,09.5,0000.0,0013.12,0008.78,0008.28
2022-09-13 09:10:00,,0826.7,5.00,0.00,30.0,28.4,00.0,38.8,31.7,09.5,-000.2,0013.56,0008.77,0008.27
2022-09-13 09:11:00,,0826.7,5.01,0.00,30.0,28.4,00.0,38.8,31.7,09.4,-000.3,0013.67,0008.77,0008.27
2022-09-13 09:12:00,,0826.7,4.99,0.00,30.0,28.4,00.0,38.8,31.7,09.4,-000.3,0013.67,0008.73,0008.25
2022-09-13 09:13:00,,0826.7,5.00,0.00,30.0,28.5,00.0,38.8,31.7,09.4,0000.1,0014.03,0008.72,0008.25
2022-09-13 09:14:00,,0826.7,5.00,0.00,30.0,28.5,00.0,38.8,31.7,09.5,0000.1,0014.47,0008.74,0008.23
2022-09-13 09:15:00,,0826.7,4.99,0.00,30.0,28.4,00.0,38.8,31.7,09.5,0000.3,0014.43,0008.73,0008.24
2022-09-13 09:16:00,,0826.7,5.01,0.00,30.0,28.5,00.0,38.8,31.7,09.5,0000.1,0014.47,0008.70,0008.22
2022-09-13 09:17:00,,0826.7,4.99,0.00,30.0,28.5,00.0,38.8,31.7,09.5,0000.3,0014.43,0008.69,0008.23
2022-09-13 09:18:00,,0826.7,5.01,0.00,30.0,28.5,00.0,38.8,31.7,09.4,0000.7,0014.48,0008.71,0008.24
2022-09-13 09:19:00,,0826.7,4.99,0.00,30.0,28.5,00.0,38.8,31.7,09.4,0000.6,0014.46,0008.73,0008.26
2022-09-13 09:20:00,,0826.7,5.00,0.00,30.0,28.5,00.0,38.8,31.7,09.4,0000.9,0014.11,0008.73,0008.28
2022-09-13 09:21:00,,0826.7,5.00,0.00,30.0,28.5,00.0,38.8,31.7,09.4,0001.7,0013.60,0008.76,0008.31
2022-09-13 09:22:00,,0826.7,4.99,0.00,30.0,28.5,00.0,38.8,31.7,09.5,0001.7,0013.56,0008.78,0008.33
2022-09-13 09:23:00,,0826.7,5.00,0.00,30.0,28.5,00.0,38.8,31.8,09.3,0001.6,0013.48,0008.80,0008.35
2022-09-13 09:24:00,,0826.6,5.01,0.00,30.0,28.5,00.0,38.8,31.7,09.4,0001.6,0013.24,0008.83,0008.38
2022-09-13 09:25:00,,0826.7,5.00,0.00,30.0,28.5,00.0,38.8,31.7,09.5,0001.5,0012.49,0008.84,0008.40
2022-09-13 09:26:00,,0826.7,5.01,0.00,30.0,28.5,00.0,38.8,31.8,09.3,0001.5,0012.63,0008.90,0008.43
2022-09-13 09:27:00,,0826.7,5.01,0.00,30.0,28.4,00.0,38.8,31.7,09.6,0001.4,0012.74,0008.95,0008.45
2022-09-13 09:28:00,,0826.7,4.99,0.00,30.0,28.4,00.0,38.8,31.7,09.5,0001.2,0012.89,0009.00,0008.48
2022-09-13 09:29:00,,0826.7,5.00,0.00,30.0,28.4,00.0,38.8,31.7,09.4,0001.6,0012.88,0009.00,0008.48
2022-09-13 09:30:00,,0826.7,5.01,0.00,30.0,28.4,00.0,38.8,31.7,09.5,0001.9,0013.77,0009.00,0008.47
2022-09-13 09:31:00,,0826.7,5.00,0.00,30.0,28.4,00.0,38.8,31.7,09.5,0001.7,0013.76,0008.99,0008.47
2022-09-13 09:32:00,,0826.7,4.99,0.00,30.0,28.4,00.0,38.8,31.7,09.5,0001.5,0013.62,0008.99,0008.48
2022-09-13 09:33:00,,0826.7,5.00,0.00,30.0,28.4,00.0,38.8,31.7,09.6,0001.2,0013.49,0009.01,0008.48
2022-09-13 09:34:00,,0826.7,5.00,0.00,30.0,28.4,00.0,38.8,31.7,09.5,0001.7,0013.85,0009.04,0008.49
2022-09-13 09:35:00,,0826.7,5.01,0.00,30.0,28.4,00.0,38.8,31.7,09.5,0001.5,0014.34,0009.08,0008.49
2022-09-13 09:36:00,,0826.7,5.01,0.00,29.9,28.4,00.0,38.8,31.7,09.5,0001.3,0014.43,0009.10,0008.49
2022-09-13 09:37:00,,0826.7,4.99,0.00,30.0,28.4,00.0,38.8,31.7,09.4,0001.7,0014.46,0009.08,0008.51
2022-09-13 09:38:00,,0826.7,5.00,0.00,30.0,28.4,00.0,38.8,31.7,09.3,0001.5,0014.39,0009.07,0008.51
2022-09-13 09:39:00,,0826.7,4.99,0.00,30.0,28.4,00.0,38.8,31.7,09.3,0001.6,0014.34,0009.04,0008.51
2022-09-13 09:40:00,,0826.7,5.00,0.00,30.0,28.4,00.0,38.8,31.7,09.5,0000.9,0014.39,0009.05,0008.51
2022-09-13 09:41:00,,0826.7,5.00,0.00,30.0,28.4,00.0,38.8,31.7,09.4,0000.3,0014.50,0009.05,0008.52
2022-09-13 09:42:00,,0826.7,5.00,0.00,30.0,28.4,00.0,38.8,31.7,09.5,-000.1,0015.33,0009.06,0008.52
2022-09-13 09:43:00,,0826.7,5.00,0.00,30.0,28.4,00.0,38.8,31.7,09.4,-000.0,0015.63,0009.07,0008.52
2022-09-13 09:44:00,,0826.7,4.98,0.00,29.9,28.3,00.0,38.8,31.7,09.4,0000.1,0015.63,0009.09,0008.52
2022-09-13 09:45:00,,0826.7,5.01,0.00,29.9,28.3,00.0,38.8,31.7,09.2,-000.0,0015.43,0009.09,0008.52
2022-09-13 09:46:00,,0826.7,5.00,0.00,29.9,28.4,00.0,38.8,31.7,09.4,0000.2,0014.83,0009.07,0008.52
2022-09-13 09:47:00,,0826.7,5.01,0.00,29.9,28.4,00.0,38.8,31.7,09.4,0000.4,0014.99,0009.02,0008.51
2022-09-13 09:48:00,,0826.7,5.00,0.00,29.9,28.3,00.0,38.8,31.7,09.4,0000.2,0014.98,0009.02,0008.50
2022-09-13 09:49:00,,0826.7,5.00,0.00,29.9,28.3,00.0,38.8,31.7,09.4,0000.0,0015.02,0009.00,0008.47
2022-09-13 09:50:00,,0826.7,4.99,0.00,29.9,28.3,00.0,38.8,31.7,09.5,-000.2,0015.24,0008.98,0008.45
2022-09-13 09:51:00,,0826.7,5.00,0.00,29.9,28.3,00.0,38.7,31.6,09.6,-000.1,0015.39,0008.97,0008.43
2022-09-13 09:52:00,,0826.8,5.01,0.00,29.9,28.3,00.0,38.7,31.6,09.7,0000.3,0014.57,0008.95,0008.40
2022-09-13 09:53:00,,0826.8,5.00,0.00,29.9,28.2,00.0,38.7,31.6,09.8,0000.2,0013.92,0008.94,0008.39
2022-09-13 09:54:00,,0826.7,5.01,0.00,29.9,28.3,00.0,38.7,31.6,10.8,0000.4,0013.72,0008.93,0008.39
2022-09-13 09:55:00,,0826.8,5.00,0.00,29.9,28.3,00.0,38.7,31.6,12.0,0000.2,0013.83,0008.88,0008.36
2022-09-13 09:56:00,,0826.8,4.99,0.00,29.9,28.4,00.0,38.7,31.7,10.6,0000.3,0013.67,0008.82,0008.36
2022-09-13 09:57:00,,0826.9,5.00,0.00,29.9,28.4,00.0,38.7,31.7,10.8,0000.7,0013.76,0008.79,0008.34
2022-09-13 09:58:00,,0826.7,5.01,0.00,29.9,28.4,00.0,38.7,31.7,10.2,0000.7,0014.31,0008.81,0008.35
2022-09-13 09:59:00,,0826.7,4.99,0.00,29.9,28.4,00.0,38.7,31.7,10.6,0001.1,0014.65,0008.82,0008.34
